Starlink 11519

operational
NORAD ID: 62560 Int'l Des: 2025-006 Owner: SPXS Country: US Constellation: starlink
LEOCIRCULAR

Starlink 11519について

説明を読み込み中...

リアルタイム位置

3D地球を読み込み中...

次回通過

高度履歴

Altitude vs Time

uPlot chart will show altitude changes over time

軌道要素

1 62560U 25006G 25301.47296054 .00325071 00000-0 24189-2 0 9994
2 62560 42.9992 217.2551 0002268 302.4173 57.6475 15.71037864 45800
Epoch: Oct 28, 2025 • Age: 33 hours

現在のステータス

高度 357.5 km
速度 7.70 km/s
衛星直下点 -17.85°S, 66.77°E
打ち上げ日 Jan 10, 2025
運用期間 0.7 years
タイプ internet

技術仕様

分類 Payload
質量 960.00 kg
乾燥質量 910.00 kg
総質量 960.00 kg
長さ 0.30 m
直径 4.10 m
スパン 29.00 m
形状 Box + pan
製造者 SPXS
バスタイプ Starlink V2MD
フェーズステータス In Orbit
所有者/国 SPXS/US

大規模コンステレーション

Loading constellations...